GW6594 Weather Reports


Display with metric or nautical units.
time (UTC)temp
F
wind
direction
speed
MPH
gust
MPH
rain 1hr
in
rain 24hr
in
rain mn
in
humidity
%
barometer
mb
20260508074600 41 284 7.0 12.0 0.00 0.01 0.00 66 1004.7
20260508073100 41 267 8.0 13.0 0.00 0.01 0.00 65 1004.7
20260508071603 41 294 6.0 12.0 0.00 0.01 0.00 65 1004.6
20260508070101 41 276 7.0 13.0 0.00 0.01 0.00 65 1004.6
20260508064559 41 275 7.0 13.0 0.00 0.02 0.00 65 1004.6
20260508063107 41 281 7.0 12.0 0.00 0.02 0.00 64 1004.8
20260508061559 41 279 6.0 14.0 0.00 0.02 0.00 64 1004.8
20260508060059 41 300 7.0 13.0 0.00 0.02 0.00 64 1004.9
20260508054600 40 267 5.0 10.0 0.00 0.19 0.00 64 1005.1
20260508053108 40 284 5.0 9.0 0.00 0.19 0.00 63 1005.1
20260508051600 41 296 3.0 5.0 0.00 0.19 0.00 62 1005.3
20260508050103 41 306 4.0 8.0 0.00 0.19 0.00 61 1005.3
20260508044602 42 279 5.0 10.0 0.00 0.20 0.00 59 1005.4
20260508043105 43 296 5.0 10.0 0.00 0.20 0.00 58 1005.4
20260508041605 43 309 5.0 11.0 0.00 0.20 0.00 58 1005.5
20260508040104 43 304 6.0 11.0 0.00 0.20 0.00 58 1005.4
20260508034612 44 286 7.0 11.0 0.00 0.20 0.20 57 1005.6
20260508033102 44 300 6.0 12.0 0.00 0.20 0.20 56 1005.7
20260508031559 45 286 6.0 14.0 0.00 0.20 0.20 55 1005.6
20260508024602 45 295 8.0 14.0 0.00 0.24 0.20 55 1005.6
20260508023100 46 304 10.0 18.0 0.00 0.24 0.20 54 1005.4
20260508021602 46 308 10.0 16.0 0.00 0.24 0.20 53 1005.5
20260508020105 47 289 10.0 17.0 0.00 0.24 0.20 53 1005.4
20260508014559 47 331 11.0 19.0 0.00 0.40 0.20 53 1005.6
20260508013102 48 288 11.0 17.0 0.00 0.40 0.20 53 1005.6
20260508011604 48 284 11.0 19.0 0.00 0.40 0.20 53 1005.6
20260508010058 49 306 12.0 19.0 0.00 0.40 0.20 53 1005.4
20260508004558 50 325 10.0 18.0 0.00 0.57 0.20 53 1005.3
20260508003059 51 339 11.0 20.0 0.00 0.57 0.20 53 1005.0
20260508001624 51 291 10.0 19.0 0.00 0.57 0.20 57 1004.6
20260508000058 50 314 9.0 13.0 0.00 0.57 0.20 68 1004.3
20260507234558 51 261 7.0 12.0 0.00 0.68 0.20 71 1004.0
20260507233057 51 228 4.0 7.0 0.00 0.68 0.20 73 1003.7
20260507231559 51 232 4.0 9.0 0.00 0.68 0.20 72 1003.5
20260507230058 51 238 5.0 9.0 0.00 0.68 0.20 72 1003.3
20260507224601 52 215 5.0 8.0 0.00 0.71 0.20 72 1003.0
20260507223058 52 211 5.0 9.0 0.00 0.71 0.20 72 1002.7
20260507221559 51 213 5.0 8.0 0.00 0.71 0.20 72 1002.7
20260507220059 51 222 5.0 13.0 0.00 0.71 0.20 70 1002.8
20260507214604 52 192 7.0 15.0 0.00 0.76 0.20 69 1002.9
20260507213100 52 244 8.0 16.0 0.00 0.76 0.20 66 1002.9
20260507211600 53 188 9.0 18.0 0.00 0.76 0.20 65 1002.9
20260507204601 54 213 10.0 20.0 0.00 0.77 0.20 64 1002.7
20260507203101 57 204 11.0 23.0 0.00 0.77 0.20 63 1002.6
20260507201601 57 198 10.0 22.0 0.00 0.77 0.20 62 1002.6
20260507200110 57 184 11.0 21.0 0.00 0.77 0.20 61 1002.8
20260507194601 59 171 15.0 23.0 0.00 0.77 0.20 60 1002.8
20260507193100 60 198 10.0 19.0 0.00 0.77 0.20 60 1002.9
20260507191600 59 216 11.0 18.0 0.00 0.77 0.20 59 1002.9
20260507190059 60 200 12.0 20.0 0.00 0.77 0.20 60 1002.9
20260507184628 61 205 11.0 18.0 0.00 0.77 0.20 61 1003.1
20260507183059 60 217 12.0 18.0 0.00 0.77 0.20 58 1003.1
20260507181605 62 200 12.0 19.0 0.00 0.77 0.20 59 1003.2
20260507180059 62 207 11.0 17.0 0.00 0.77 0.20 58 1003.4
20260507174609 61 229 12.0 18.0 0.00 0.77 0.20 54 1003.5
20260507173058 60 265 11.0 17.0 0.00 0.77 0.20 56 1003.3
20260507171603 60 217 11.0 17.0 0.00 0.77 0.20 58 1003.3
20260507170059 60 0 3.0 10.0 0.00 0.77 0.20 55 1003.3
20260507164557 58 195 3.0 14.0 0.00 0.77 0.20 59 1003.6
20260507163059 60 290 2.0 14.0 0.00 0.77 0.20 55 1003.7
20260507161558 59 300 4.0 13.0 0.00 0.77 0.20 54 1003.8
20260507160058 58 294 2.0 13.0 0.00 0.77 0.20 62 1003.9
20260507154604 57 49 3.0 7.0 0.00 0.77 0.20 58 1004.1
20260507153102 57 311 5.0 10.0 0.00 0.77 0.20 61 1004.3
20260507151557 56 298 5.0 11.0 0.00 0.77 0.20 64 1004.6
20260507150059 56 228 4.0 9.0 0.00 0.77 0.20 68 1004.6
20260507144600 55 341 5.0 13.0 0.00 0.77 0.20 67 1004.7
20260507143058 55 296 4.0 11.0 0.00 0.77 0.20 71 1004.9
20260507141557 54 336 6.0 13.0 0.00 0.77 0.20 68 1004.9
20260507140104 53 295 5.0 11.0 0.00 0.77 0.20 74 1005.0
20260507134600 53 311 8.0 12.0 0.00 0.77 0.20 75 1004.9
20260507133106 52 307 8.0 13.0 0.00 0.77 0.20 79 1005.5
20260507131603 51 302 6.0 16.0 0.00 0.77 0.20 80 1005.6
20260507130109 50 266 5.0 14.0 0.00 0.77 0.20 84 1005.2
20260507124605 48 296 6.0 15.0 0.00 0.77 0.20 86 1005.3
20260507123059 47 280 8.0 13.0 0.00 0.77 0.20 89 1004.9
20260507121607 46 296 9.0 13.0 0.00 0.77 0.20 90 1004.9
20260507120105 46 277 7.0 13.0 0.00 0.77 0.20 92 1005.2
20260507114614 45 280 3.0 8.0 0.00 0.77 0.20 93 1005.9
20260507113101 45 325 3.0 7.0 0.00 0.77 0.20 93 1005.6
20260507111604 44 273 3.0 8.0 0.00 0.77 0.20 93 1005.7
20260507110109 44 294 4.0 7.0 0.00 0.77 0.20 93 1005.7
20260507104601 44 297 4.0 11.0 0.00 0.77 0.20 93 1005.8
20260507103101 44 312 6.0 12.0 0.00 0.77 0.20 93 1004.7
20260507101605 44 285 6.0 12.0 0.00 0.77 0.20 93 1005.0
20260507100103 44 302 7.0 15.0 0.00 0.77 0.20 94 1004.4
20260507094558 44 275 8.0 15.0 0.00 0.77 0.20 94 1004.6
20260507093059 44 318 8.0 15.0 0.00 0.77 0.20 94 1004.3
20260507091600 44 301 7.0 12.0 0.00 0.77 0.20 94 1004.9
20260507090058 44 276 8.0 17.0 0.00 0.77 0.20 94 1004.7
20260507084559 45 305 9.0 16.0 0.00 0.77 0.20 94 1004.6
20260507083056 45 318 8.0 17.0 0.00 0.77 0.20 95 1004.2
20260507081604 46 321 9.0 14.0 0.00 0.77 0.20 95 1004.1